Location: Unspecified
(0.0000°N, 0.0000°E)
Time: 09:06:26
(UTC+00:00)

BEESAT - Pass Details

Date: 16 December 2017
Orbit: 702 x 709 km, 98.5° (Epoch: 20 January)

Event Time Altitude Azimuth Distance (km) Brightness Sun altitude
Rises 03:21:14 0° 175° (S) 3,096 ? -34.9°
Reaches altitude 10° 03:23:31 10° 178° (S) 2,174 ? -34.4°
Enters shadow 03:24:04 13° 180° (S) 1,956 ? -34.3°
